[ hide orbit diagram ]
For accurate long-term ephemerides, please instead use our Horizons system.This orbit viewer was implemented using two-body methods, and hence should not be used for determining accurate long-term trajectories (over several years or decades) or planetary encounter circumstances.
Orbital Elements at Epoch 2459000.5 (2020-May-31.0) TDB
Reference: JPL 24 (heliocentric ecliptic J2000)
Element | Value | Uncertainty (1-sigma) | Units |
e | .1975828629364418 | 5.1792e-08 | |
a | 2.650400729528653 | 1.9087e-08 | au |
q | 2.126726965459548 | 1.3254e-07 | au |
i | 2.296820963947452 | 5.017e-06 | deg |
node | 29.00065524285726 | 0.00013576 | deg |
peri | 274.5009137470814 | 0.00013641 | deg |
M | 217.0574967992575 | 1.9054e-05 | deg |
tp | 2459626.284242007433 (2022-Feb-15.78424201) | 8.8249e-05 | TDB |
period | 1576.034573889467 4.31 | 1.7025e-05 4.661e-08 | d yr |
n | .2284213848885069 | 2.4675e-09 | deg/d |
Q | 3.174074493597759 | 2.2858e-08 | au |
|
| | Orbit Determination Parameters
Additional Information
|
[ show covariance matrix ]
Physical Parameter Table
Parameter |
Symbol |
Value |
Units |
Sigma |
Reference |
Notes |
absolute magnitude |
H |
15.6 |
|
n/a |
MPO375840 |
|
|
117015 (2004 JR6) Discovered 2004-May-10 by NEAT at Palomar |
Reference: 20051019/Numbers.arc | Last Updated: 2005-10-26 |
|
[ show close-approach data ]
|